This is the latest recevied weather packets stored in our database for station/object IW4DZV-13. If no packets are shown the sender has not sent any weather packets the latest 10 day(s).
| Time | Temp. | Humidity | Pressure | Rain* | Wind** | Luminosity | Snow |
|---|---|---|---|---|---|---|---|
| 1787906726 | 28.33° C | 80% | 1014.9 hPa | 0.25 mm | - | 522 W/m² | - |
| 1787905823 | 27.22° C | 82% | 1014.8 hPa | 0.25 mm | - | 432 W/m² | - |
| 1787904923 | 27.78° C | 81% | 1014.8 hPa | 0.25 mm | - | 243 W/m² | - |
| 1787904020 | 27.22° C | 84% | 1014.8 hPa | 0.25 mm | - | 459 W/m² | - |
| 1787903116 | 26.67° C | 86% | 1015.1 hPa | 0.25 mm | - | 285 W/m² | - |
| 1787902212 | 25.56° C | 87% | 1015.1 hPa | 0.25 mm | - | 290 W/m² | - |
| 1787901310 | 25° C | 87% | 1015.4 hPa | 0.25 mm | - | 211 W/m² | - |
| 1787900406 | 24.44° C | 87% | 1015.7 hPa | 0.25 mm | - | 178 W/m² | - |
| 1787899508 | 24.44° C | 88% | 1015.8 hPa | 0.25 mm | - | 149 W/m² | - |
| 1787898605 | 23.89° C | 89% | 1015.6 hPa | 0.25 mm | - | 109 W/m² | - |
| 1787897705 | 23.89° C | 90% | 1015.8 hPa | 0.25 mm | - | 114 W/m² | - |
| 1787896801 | 23.33° C | 90% | 1015.8 hPa | 0 mm | - | 105 W/m² | - |
| 1787895981 | 22.78° C | 91% | 1015.4 hPa | 0 mm | - | 74 W/m² | - |
| 1787895059 | 22.78° C | 91% | 1015.1 hPa | 0 mm | - | 58 W/m² | - |
| 1787894183 | 22.78° C | 91% | 1015.1 hPa | 0 mm | - | 35 W/m² | - |
| 1787893252 | 22.78° C | 91% | 1014.8 hPa | 0 mm | - | 19 W/m² | - |
| 1787892351 | 22.78° C | 91% | 1014.9 hPa | 0 mm | - | 9 W/m² | - |
| 1787891470 | 22.78° C | 91% | 1014.7 hPa | 0 mm | - | 0 W/m² | - |
| 1787890548 | 22.78° C | 91% | 1014.7 hPa | 0 mm | - | 0 W/m² | - |
| 1787889649 | 22.78° C | 91% | 1014.7 hPa | 0 mm | - | 0 W/m² | - |
| 1787888749 | 22.78° C | 91% | 1014.8 hPa | 0 mm | - | 0 W/m² | - |
| 1787887869 | 22.78° C | 91% | 1014.8 hPa | 0 mm | - | 0 W/m² | - |
| 1787886949 | 22.78° C | 91% | 1014.9 hPa | 0 mm | - | 0 W/m² | - |
| 1787886047 | 22.78° C | 91% | 1015.3 hPa | 0 mm | - | 0 W/m² | - |
| 1787885146 | 22.78° C | 91% | 1015.6 hPa | 0 mm | - | 0 W/m² | - |
* Rain since midnight (hover to see other rain measurements)
** Current wind speed in m/s (hover to see current wind gust speed)